Weather reports worldwide

Advertisment
Straubing, Germany (10788): temperature & dewpoint: 20.09.2020 13:00:00 - 26.09.2020 13:00:00 (CEST)Straubing, Germany (10788): temperature 5cm & temperature -5cm: 20.09.2020 13:00:00 - 26.09.2020 13:00:00 (CEST)Straubing, Germany (10788): temperature -20cm & temperature -100cm: 20.09.2020 13:00:00 - 26.09.2020 13:00:00 (CEST)Straubing, Germany (10788): wind speed & gusts: 20.09.2020 13:00:00 - 26.09.2020 13:00:00 (CEST)Straubing, Germany (10788): wind direction: 20.09.2020 13:00:00 - 26.09.2020 13:00:00 (CEST)Straubing, Germany (10788): reduced air pressure: 20.09.2020 13:00:00 - 26.09.2020 13:00:00 (CEST)Straubing, Germany (10788): visibility: 20.09.2020 13:00:00 - 26.09.2020 13:00:00 (CEST)Straubing, Germany (10788): sunshine duration: 20.09.2020 13:00:00 - 26.09.2020 13:00:00 (CEST)Straubing, Germany (10788): precipitation: 20.09.2020 13:00:00 - 26.09.2020 13:00:00 (CEST)
Date & Time tt [°C] td [°C] tt 5cm [°C] tt -5cm [°C] tt -20cm [°C] tt -100cm [°C] ff [km/h] ff [kn] fx [km/h] fx [kn] dd ppp [hPa] vv [km] sd [min] rr [mm]
26.09.2020 13:00:00 7,9 6,4 7,8 10,6 12,7 17,2 15 8 32 17 W 999,8 12 0 1,0
26.09.2020 12:00:00 7,6 6,4 7,5 10,5 12,7 17,2 17 9 34 19 W 999,8 6 0 0,8
26.09.2020 11:00:00 7,9 6,4 7,7 10,2 12,7 17,2 17 9 37 20 W 999,3 36 0 0,4
26.09.2020 10:00:00 8,1 6,8 7,9 10,3 12,8 17,2 18 10 32 17 W 998,8 13 0 0,8
26.09.2020 09:00:00 7,9 7,0 7,7 9,8 12,9 17,3 14 8 27 14 W 998,3 7 0 0,7
26.09.2020 08:00:00 7,9 6,5 7,5 9,5 13,0 17,3 13 7 33 18 W 998,9 34 0 0,1
26.09.2020 07:00:00 8,1 7,0 7,6 9,6 13,1 17,3 14 7 24 13 W 999,0 23 0 1,6
26.09.2020 06:00:00 7,8 6,8 7,4 9,6 13,3 17,3 16 8 26 14 W 999,0 9 0 0,7
26.09.2020 05:00:00 7,7 6,7 7,2 9,7 13,4 17,3 12 7 21 11 W 998,8 17 0 0,4
26.09.2020 04:00:00 7,4 6,7 7,1 9,9 13,6 17,3 9 5 16 8 W 999,5 10 0 0,7
26.09.2020 03:00:00 7,1 6,2 6,9 10,0 13,8 17,3 8 4 19 10 WSW 1000,5 10 0 1,1
26.09.2020 02:00:00 7,0 6,3 6,9 10,1 13,9 17,3 5 3 13 7 WSW 1000,7 14 0 1,4
26.09.2020 01:00:00 7,1 5,8 6,7 10,3 14,1 17,3 9 5 15 8 SW 1001,0 14 0 1,5
26.09.2020 00:00:00 7,3 6,2 7,1 10,4 14,3 17,3 4 2 8 5 WSW 1001,1 27 0 0,5
25.09.2020 23:00:00 7,2 6,0 6,9 10,4 14,5 17,3 6 4 23 12 WSW 1001,7 14 0 0,6
25.09.2020 22:00:00 7,5 6,0 7,3 10,7 14,7 17,3 11 6 19 10 SW 1001,8 73 0 0,0
25.09.2020 21:00:00 7,8 6,4 7,4 11,0 14,9 17,3 11 6 19 10 SW 1002,1 75 0 0,0
25.09.2020 20:00:00 7,9 6,6 7,5 11,5 15,1 17,3 10 5 15 8 WSW 1002,3 49 0 0,2
25.09.2020 19:00:00 8,0 6,6 7,5 11,9 15,3 17,3 6 3 14 8 W 1002,1 22 0 0,2
25.09.2020 18:00:00 8,1 6,5 7,6 12,2 15,5 17,3 8 4 28 15 W 1002,2 19 0 0,5
25.09.2020 17:00:00 8,8 7,0 8,4 12,9 15,6 17,4 20 11 35 19 WSW 1001,9 12 0 1,4
25.09.2020 16:00:00 10,3 7,2 9,4 13,7 15,7 17,4 14 8 24 13 WSW 1001,4 18 0 0,0
25.09.2020 15:00:00 10,8 7,6 10,9 14,5 15,7 17,4 12 7 29 16 W 1001,1 75 0 0,1
25.09.2020 14:00:00 10,7 8,8 11,4 14,6 15,7 17,4 13 7 29 15 W 1001,1 30 0 0,9
25.09.2020 13:00:00 11,0 8,8 10,8 13,9 15,8 17,4 14 8 32 17 WSW 1001,9 58 0 0,1
25.09.2020 12:00:00 10,4 8,7 10,1 13,9 16,0 17,4 20 11 42 23 W 1001,9 26 0 2,7
25.09.2020 11:00:00 10,6 9,3 10,3 14,4 16,1 17,4 19 11 36 20 W 1001,1 8 0 5,4
25.09.2020 10:00:00 13,6 12,6 13,3 14,8 16,2 17,4 8 5 12 7 SSW 999,9 20 0 0,3
25.09.2020 09:00:00 13,3 12,3 13,0 14,3 16,3 17,4 5 3 13 7 S 999,9 - 0 0,1
25.09.2020 08:00:00 13,0 12,1 12,6 14,0 16,4 17,4 7 4 17 9 SSW 1000,4 42 0 0,0
25.09.2020 07:00:00 12,8 12,0 12,3 14,1 16,5 17,4 10 6 14 8 SSW 1000,5 49 0 0,7
25.09.2020 06:00:00 12,8 12,1 12,4 14,3 16,7 17,4 6 3 16 9 S 1001,0 23 0 2,0
25.09.2020 05:00:00 13,3 12,3 12,7 14,7 16,8 17,4 8 5 22 12 WSW 1001,4 13 0 3,2
25.09.2020 04:00:00 13,9 13,2 13,4 15,0 17,0 17,4 8 4 17 9 W 1001,7 14 0 2,0
25.09.2020 03:00:00 14,8 13,1 13,8 15,4 17,0 17,4 10 6 31 17 W 1001,9 18 0 0,6
25.09.2020 02:00:00 16,1 14,1 14,9 15,4 17,2 17,4 10 5 35 19 WSW 1001,6 25 0 0,1
25.09.2020 01:00:00 16,4 12,8 15,2 15,2 17,3 17,4 22 12 36 20 SSW 1001,9 53 0 0,0
25.09.2020 00:00:00 15,3 13,1 14,1 15,2 17,5 17,4 9 5 14 8 ESE 1001,1 47 0 0,0
24.09.2020 23:00:00 14,5 13,2 13,5 15,2 17,7 17,4 6 3 13 7 ENE 1002,2 31 0 0,0
24.09.2020 22:00:00 13,9 13,0 12,7 15,2 18,0 17,4 10 5 13 7 E 1003,8 22 0 0,0
24.09.2020 21:00:00 15,1 13,5 13,2 15,9 18,2 17,5 10 5 13 7 E 1004,8 34 0 0,0
24.09.2020 20:00:00 15,8 13,9 13,2 17,0 18,4 17,5 6 4 13 7 E 1005,6 39 0 0,0
24.09.2020 19:00:00 17,4 14,5 16,1 18,5 18,4 17,5 10 5 20 11 E 1006,1 40 27 0,0
24.09.2020 18:00:00 19,0 14,9 19,0 19,6 18,3 17,5 14 7 22 12 E 1006,6 55 12 0,0
24.09.2020 17:00:00 19,2 15,0 19,2 20,6 18,1 17,5 16 9 24 13 E 1007,2 50 15 0,0
24.09.2020 16:00:00 20,2 14,4 21,8 21,7 17,8 17,5 14 7 22 12 ESE 1008,1 39 41 0,0
24.09.2020 15:00:00 19,5 14,6 20,6 22,0 17,4 17,5 11 6 16 9 ESE 1008,5 56 11 0,0
24.09.2020 14:00:00 19,7 13,9 22,5 23,0 16,8 17,5 8 4 11 6 ENE 1009,0 53 60 0,0
24.09.2020 13:00:00 19,1 13,8 23,1 21,8 16,4 17,5 5 3 13 7 SSE 1009,5 57 59 0,0
24.09.2020 12:00:00 17,4 13,5 20,0 18,4 16,2 17,5 5 3 13 7 S 1009,8 49 12 0,0
24.09.2020 11:00:00 15,9 14,4 17,3 16,7 16,1 17,5 6 4 12 7 SE 1010,2 31 3 0,0
24.09.2020 10:00:00 14,2 13,7 14,5 15,5 16,0 17,5 9 5 16 9 ESE 1010,0 14 0 0,8
24.09.2020 09:00:00 13,3 13,2 14,3 14,6 16,1 17,5 12 6 17 9 ESE 1009,5 7 0 0,0
24.09.2020 08:00:00 12,0 12,0 12,3 13,6 16,2 17,5 10 6 18 10 ESE 1009,2 0,4 0 0,1
24.09.2020 07:00:00 11,4 11,4 11,4 13,4 16,4 17,5 9 5 14 8 E 1009,2 0,2 0 0,0
24.09.2020 06:00:00 11,5 11,5 11,4 13,5 16,6 17,5 7 4 10 5 E 1009,0 0,1 0 0,1
24.09.2020 05:00:00 11,2 11,2 10,6 13,6 16,7 17,5 3 2 7 4 ESE 1009,1 - 0 0,0
24.09.2020 04:00:00 11,8 11,7 11,4 13,9 16,9 17,5 4 2 6 4 S 1009,0 0,1 0 0,0
24.09.2020 03:00:00 11,8 11,8 10,9 14,2 17,1 17,5 5 3 8 4 SSE 1008,9 0,1 0 0,0
24.09.2020 02:00:00 12,7 12,6 11,9 14,7 17,3 17,5 5 3 7 4 S 1008,9 0,2 0 0,0
24.09.2020 01:00:00 13,6 13,5 12,7 14,8 17,4 17,5 5 3 8 4 E 1008,7 0,1 0 0,0
24.09.2020 00:00:00 13,7 13,5 12,5 15,3 17,6 17,5 7 4 10 5 E 1008,9 0,3 0 0,0
23.09.2020 23:00:00 15,1 14,8 14,7 15,8 17,7 17,5 8 4 11 6 ESE 1008,9 4,5 0 0,0
23.09.2020 22:00:00 14,7 14,3 13,9 16,0 17,9 17,5 8 4 12 7 E 1008,8 4,3 0 0,0
23.09.2020 21:00:00 14,9 14,5 14,0 16,3 18,0 17,5 4 2 10 6 ESE 1008,7 8 0 0,0
23.09.2020 20:00:00 15,0 14,4 13,5 17,0 18,1 17,5 7 4 10 6 ESE 1008,5 12 0 0,0
23.09.2020 19:00:00 16,5 15,0 15,6 18,3 18,0 17,5 7 4 10 5 ESE 1008,2 26 5 0,0
23.09.2020 18:00:00 17,3 15,3 17,3 19,0 17,9 17,5 6 3 8 5 ESE 1008,0 30 0 0,0
23.09.2020 17:00:00 17,4 14,8 18,0 19,6 17,7 17,5 3 2 7 4 E 1008,1 28 0 0,0
23.09.2020 16:00:00 16,9 14,4 17,5 19,3 17,5 17,5 4 2 9 5 NE 1008,4 35 0 0,1
23.09.2020 15:00:00 16,7 15,2 17,2 18,5 17,4 17,5 5 3 11 6 N 1008,8 15 0 1,2
23.09.2020 14:00:00 16,4 15,3 16,3 17,7 17,4 17,5 6 3 10 6 NW 1008,9 11 0 1,6
23.09.2020 13:00:00 16,2 15,4 16,1 17,0 17,4 17,5 5 3 14 8 WNW 1009,1 7 0 2,5
23.09.2020 12:00:00 15,6 15,1 15,6 16,1 17,5 17,5 9 5 16 9 WNW 1009,1 9 0 5,8
23.09.2020 11:00:00 15,3 15,0 15,0 15,9 17,7 17,5 7 4 16 9 W 1009,4 7 0 9,0
23.09.2020 10:00:00 15,2 14,8 15,0 16,0 17,8 17,5 8 5 22 12 WSW 1009,6 6 0 9,3
23.09.2020 09:00:00 15,5 14,5 14,8 16,2 17,9 17,5 11 6 21 11 W 1008,6 13 0 1,4
23.09.2020 08:00:00 14,0 13,4 13,9 16,1 18,0 17,5 3 1 9 5 NNE 1008,6 5 0 3,0
23.09.2020 07:00:00 13,8 13,0 13,5 16,2 18,1 17,5 5 3 6 4 E 1007,9 7 0 0,2
23.09.2020 06:00:00 13,3 12,6 12,8 16,0 18,2 17,5 0 0 8 5 N 1008,2 9 0 0,0
23.09.2020 05:00:00 12,6 11,7 11,9 15,8 18,4 17,5 5 3 8 4 SSW 1008,4 15 0 0,0
23.09.2020 04:00:00 13,1 12,2 10,2 16,1 18,6 17,5 4 2 6 3 SSW 1008,2 17 0 0,0
23.09.2020 03:00:00 13,5 12,4 12,3 16,5 18,8 17,5 3 2 5 3 SSW 1008,3 16 0 0,0
23.09.2020 02:00:00 13,5 12,1 12,7 16,6 19,0 17,5 5 3 11 6 SW 1008,7 18 0 0,0
23.09.2020 01:00:00 14,7 13,0 12,7 16,7 19,2 17,5 6 3 9 5 W 1008,8 20 0 0,0
23.09.2020 00:00:00 14,1 12,6 12,1 17,2 19,5 17,6 6 3 10 5 SSW 1009,0 22 0 0,0
22.09.2020 23:00:00 14,9 13,0 11,9 17,9 19,7 17,6 4 2 10 5 SSW 1009,1 22 0 0,0
22.09.2020 22:00:00 15,0 12,9 12,4 18,6 19,9 17,6 0 0 11 6 N 1009,1 26 0 0,0
22.09.2020 21:00:00 16,0 13,4 13,0 19,4 20,1 17,6 3 2 8 5 SW 1009,3 27 0 0,0
22.09.2020 20:00:00 19,3 14,6 15,0 20,5 20,2 17,6 2 1 4 2 SE 1009,0 38 0 0,0
22.09.2020 19:00:00 21,2 14,6 17,2 22,3 20,1 17,6 5 3 13 7 E 1008,9 41 24 0,0
22.09.2020 18:00:00 23,4 14,7 23,9 24,0 19,8 17,6 8 4 15 8 E 1008,8 36 60 0,0
22.09.2020 17:00:00 24,1 14,1 26,0 24,9 19,4 17,6 8 5 19 11 ESE 1009,5 46 60 0,0
22.09.2020 16:00:00 24,5 13,0 27,2 25,4 18,9 17,6 7 4 15 8 ENE 1010,2 49 59 0,0
22.09.2020 15:00:00 23,7 13,7 27,1 25,4 18,4 17,6 8 5 16 9 NE 1010,9 46 60 0,0
22.09.2020 14:00:00 22,7 14,5 26,8 24,4 17,9 17,6 7 4 16 9 ENE 1011,6 34 56 0,0
22.09.2020 13:00:00 21,5 14,5 25,6 23,1 17,4 17,6 8 5 15 8 E 1012,5 20 60 0,0
22.09.2020 12:00:00 19,5 13,9 23,5 21,1 17,0 17,6 8 5 15 8 ENE 1013,2 18 60 0,0
22.09.2020 11:00:00 18,1 13,9 21,6 18,7 16,8 17,6 10 5 14 7 E 1013,8 14 60 0,0
22.09.2020 10:00:00 15,1 12,3 18,1 16,3 16,8 17,6 7 4 11 6 E 1014,3 18 60 0,0
22.09.2020 09:00:00 12,1 10,3 14,2 14,4 17,0 17,6 6 3 8 4 N 1014,8 10 17 0,0
22.09.2020 08:00:00 9,5 8,3 8,2 13,7 17,2 17,6 2 1 5 3 SE 1015,2 23 0 0,0
22.09.2020 07:00:00 9,6 8,7 7,7 14,0 17,4 17,6 3 1 6 3 WSW 1015,1 13 0 0,0
22.09.2020 06:00:00 9,4 8,4 7,5 14,0 17,6 17,6 2 1 8 4 SSW 1015,1 19 0 0,0
22.09.2020 05:00:00 9,3 8,2 7,4 14,4 17,8 17,6 6 4 8 4 SSW 1015,1 28 0 0,0
22.09.2020 04:00:00 10,7 9,3 9,9 14,8 18,0 17,6 6 3 9 5 SSW 1015,1 27 0 0,0
22.09.2020 03:00:00 9,0 8,3 7,3 14,9 18,3 17,6 2 1 5 3 ESE 1015,4 15 0 0,0
22.09.2020 02:00:00 10,7 9,5 8,3 15,3 18,6 17,6 5 3 7 4 SSW 1015,3 25 0 0,0
22.09.2020 01:00:00 11,6 9,5 8,1 15,9 18,8 17,6 0 0 5 3 N 1015,3 37 0 0,0
22.09.2020 00:00:00 11,2 9,4 9,1 16,5 19,1 17,6 0 0 9 5 N 1015,7 29 0 0,0
21.09.2020 23:00:00 13,6 11,0 11,7 17,1 19,3 17,6 10 5 11 6 S 1015,6 35 0 0,0
21.09.2020 22:00:00 13,0 9,9 11,2 17,9 19,5 17,7 4 2 10 6 SSW 1015,8 32 0 0,0
21.09.2020 21:00:00 15,1 10,9 12,7 18,8 19,7 17,7 7 4 11 6 SSW 1015,4 40 0 0,0
21.09.2020 20:00:00 19,1 10,7 13,1 20,0 19,8 17,7 3 2 9 5 N 1014,4 52 0 0,0
21.09.2020 19:00:00 21,6 11,0 17,7 22,0 19,6 17,7 3 1 5 3 SSE 1014,0 59 51 0,0
21.09.2020 18:00:00 23,1 10,7 23,8 23,5 19,4 17,7 3 1 9 5 ENE 1014,0 57 60 0,0
21.09.2020 17:00:00 23,3 10,4 25,1 24,4 18,9 17,7 5 3 11 6 ESE 1014,1 65 60 0,0
21.09.2020 16:00:00 23,4 10,7 26,4 24,8 18,4 17,7 5 3 12 6 N 1014,3 62 60 0,0
21.09.2020 15:00:00 22,5 10,7 26,2 24,9 17,9 17,7 6 3 14 7 N 1014,8 36 60 0,0
21.09.2020 14:00:00 21,4 10,8 25,2 24,1 17,3 17,7 5 3 13 7 N 1015,5 48 60 0,0
21.09.2020 13:00:00 20,3 10,5 24,3 22,6 16,8 17,7 4 2 14 8 NNW 1016,0 43 60 0,0
21.09.2020 12:00:00 18,7 10,5 22,3 20,4 16,4 17,7 8 4 13 7 E 1016,5 45 59 0,0
21.09.2020 11:00:00 16,7 11,2 20,3 18,0 16,2 17,7 6 3 10 5 ENE 1016,9 45 60 0,0
21.09.2020 10:00:00 13,7 10,0 17,1 15,6 16,2 17,7 5 3 10 5 NE 1017,2 36 60 0,0
21.09.2020 09:00:00 12,1 9,4 14,4 13,7 16,3 17,7 6 3 8 5 NNE 1017,3 29 60 0,0
21.09.2020 08:00:00 8,9 7,5 10,0 12,4 16,6 17,7 3 2 10 5 W 1017,7 30 14 0,0
21.09.2020 07:00:00 7,9 7,2 4,8 12,4 16,8 17,7 5 3 8 5 SW 1017,3 32 0 0,0
21.09.2020 06:00:00 7,2 6,2 4,2 12,8 17,0 17,7 0 0 8 4 N 1017,4 8 0 0,0
21.09.2020 05:00:00 8,6 7,4 6,4 13,2 17,3 17,7 9 5 10 5 SSW 1017,0 38 0 0,0
21.09.2020 04:00:00 8,3 7,3 6,1 13,5 17,5 17,8 5 3 11 6 SSW 1016,9 33 0 0,0
21.09.2020 03:00:00 9,7 8,9 7,4 13,9 17,8 17,8 6 4 9 5 SW 1016,9 30 0 0,0
21.09.2020 02:00:00 9,5 8,2 6,6 14,3 18,1 17,8 5 3 6 4 SW 1016,8 38 0 0,0
21.09.2020 01:00:00 9,7 8,2 6,3 14,9 18,3 17,8 0 0 6 3 N 1016,8 31 0 0,0
21.09.2020 00:00:00 10,6 8,7 8,3 15,5 18,6 17,8 4 2 10 5 SW 1016,8 41 0 0,0
20.09.2020 23:00:00 10,8 8,8 9,0 16,2 18,9 17,8 8 4 11 6 SSW 1016,4 40 0 0,0
20.09.2020 22:00:00 11,9 9,0 9,6 17,0 19,1 17,8 5 3 11 6 SSW 1016,2 36 0 0,0
20.09.2020 21:00:00 13,4 9,4 10,6 18,0 19,3 17,8 5 3 8 4 SSW 1015,8 42 0 0,0
20.09.2020 20:00:00 17,9 11,1 12,4 19,3 19,4 17,8 4 2 7 4 SW 1014,6 50 0 0,0
20.09.2020 19:00:00 20,4 10,5 16,3 21,3 19,2 17,8 5 3 11 6 N 1013,8 46 54 0,0
20.09.2020 18:00:00 21,8 10,3 22,3 22,8 19,0 17,8 9 5 13 7 NNE 1013,3 40 60 0,0
20.09.2020 17:00:00 22,2 10,2 23,9 23,7 18,5 17,8 5 3 14 7 NNE 1013,5 38 60 0,0
20.09.2020 16:00:00 21,7 9,7 24,4 24,2 18,0 17,8 6 3 16 9 N 1013,9 39 60 0,0
20.09.2020 15:00:00 21,2 9,3 24,0 24,3 17,5 17,8 5 3 14 7 N 1014,3 59 60 0,0
20.09.2020 14:00:00 20,4 9,3 24,6 23,3 16,9 17,9 5 3 18 10 E 1014,8 39 60 0,0
20.09.2020 13:00:00 18,7 8,8 23,2 21,9 16,4 17,9 6 4 14 8 NNE 1015,3 42 60 0,0

tt = temperature
td = dewpoint
tt 5cm = temperature 5cm
tt -5cm = temperature -5cm
tt -20cm = temperature -20cm
tt -100cm = temperature -100cm
ff = wind speed
fx = gusts
dd = wind direction
ppp = reduced air pressure
vv = visibility
sd = sunshine duration
rr = precipitation

Next stations